EHI
0 0 0 0 0 0 0 0 0 0 0 0 0 0 0 0 0 0 0 0 0 0 0 0 0 0 0 0 0 0 0 0 0 0 0 0 0 0 0 0 0 0 0
0 0 0 0 0 0 0 0 0 0 0 0 0 0 0 0 0 0 0 0 0 0 0 0 0 0 0 0 0 0 0 0 0 0 0 0 0 0 0 0 0 0 0
0 0 0 0 0 0 0 0 0 0 0 0 0 0 0 0 0 0 0 0 0 0 0 0 0 0 0 0 0 0 0 0 0 0 0 0 0 0 0 0 0 0 0
0 0 0 0 0 0 0 0 0 0 0 0 0 0 0 0 0 0 0 0 0 0 0 0 0 0 0 0 0 0 0 0 0 0 0 0 0 0 0 0 0 0 0
0 0 0 0 0 0 0 0 0 0 0 0 0 0 0 0 0 0 0 0 0 0 0 0 0 0 0 0 0 0 0 0 0 0 0 0 0 0 0 0 0 0 0
0 0 0 0 0 0 0 0 0 0 0 0 0 0 0 0 0 0 0 0 0 0 0 0 0 0 0 0 0 0 0 0 0 0 0 0 0 0 0 0 0 0 0
0 0 0 0 0 0 0 0 0 0 0 0 0 0 0 0 0 0 0 0 0 0 0 0 0 0 0 0 0 0 0 0 0 0 0 0 0 0 0 0 0 0 0
0 0 0 0 0 0 0 0 0 0 0 0 0 0 0 0 0 0 0 0 0 0 0 0 0 0 0 0 0 0 0 0 0 0 0 0 0 0 0 0 0 0 0
0 0 0 0 0 0 0 0 0 0 0 0 0 0 0 0 0 0 0 0 0 0 0 0 0 0 0 0 0 0 0 0 0 0 0 0 0 0 0 0 0 0 0
0 0 0 0 0 0 0 0 0 0 0 0 0 0 0 0 0 0 0 0 0 0 0 0 0 0 0 0 0 0 0 0 0 0 0 0 0 0 0 0 0 0 0
0 0 0 0 0 0 0 0 0 0 0 0 0 0 0 0 0 0 0 0 0 0 0 0 0 0 0 0 0 0 0 0 0 0 0 0 0 0 0 0 0 0 0
0 0 0 0 0 0 0 0 0 0 0 0 0 0 0 0 0 0 0 0 0 0 0 0 0 0 0 0 0 0 0 0 0 0 0 0 0 0 0 0 0 0 0
0 0 0 0 0 0 0 0 0 0 0 0 0 0 0 0 0 0 0 0 0 0 0 0 0 0 0 0 0 0 0 0 0 0 0 0 0 0 0 0 0 0 0
0 0 0 0 0 0 0 0 0 0 0 0 0 0 0 0 0 0 0 0 0 0 0 0 0 0 0 0 0 0 0 0 0 0 0 0 0 0 0 0 0 0 0
0 0 0 0 0 0 0 0 0 0 0 0 0 0 0 0 0 0 0 0 0 0 0 0 0 0 0 0 0 0 0 0 0 0 0 0 0 0 0 0 0 0 0
0 0 0 0 0 0 0 0 0 0 0 0 0 0 0 0 0 0 0 0 0 0 0 0 0 0 0 0 0 0 0 0 0 0 0 0 0 0 0 0 0 0 0
0 0 0 0 0 0 0 0 0 0 0 0 0 0 0 0 0 0 0 0 0 0 0 0 0 0 0 0 0 0 0 0 0 0 0 0 0 0 0 0 0 0 0
0 0 0 0 0 0 0 0 0 0 0 0 0 0 0 0 0 0 0 0 0 0 0 0 0 0 0 0 0 0 0 0 0 0 0 0 0 0 0 0 0 0 0
0 0 0 0 0 0 0 0 0 0 0 0 0 0 0 0 0 0 0 0 0 0 0 0 0 0 0 0 0 0 0 0 0 0 0 0 0 0 0 0 0 0 0
0 0 0 0 0 0 0 0 0 0 0 0 0 0 0 0 0 0 0 0 0 0 0 0 0 0 0 0 0 0 0 0 0 0 0 0 0 0 0 0 0 0 0
0 0 0 0 0 0 0 0 0 0 0 0 0 0 0 0 0 0 0 0 0 0 0 0 0 0 0 0 0 0 0 0 0 0 0 0 0 0 0 0 0 0 0
0 0 0 0 0 0 0 0 0 0 0 0 0 0 0 0 0 0 0 0 0 0 0 0 0 0 0 0 0 0 0 0 0 0 0 0 0 0 0 0 0 0 0
0 0 0 0 0 0 0 0 0 0 0 0 0 0 0 0 0 0 0 0 0 0 0 0 0 0 0 0 0 0 0 0 0 0 0 0 0 0 0 0 0 0 0
0 0 0 0 0 0 0 0 0 0 0 0 0 0 0 0 0 0 0 0 0 0 0 0 0 0 0 0 0 0 0 0 0 0 0 0 0 0 0 0 0 0 0
0 0 0 0 0 0 0 0 0 0 0 0 0 0 0 0 0 0 0 0 0 0 0 0 0 0 0 0 0 0 0 0 0 0 0 0 0 0 0 0 0 0 0
0 0 0 0 0 0 0 0 0 0 0 0 0 0 0 0 0 0 0 0 0 0 0 0 0 0 0 0 0 0 0 0 0 0 0 0 0 0 0 0 0 0 0
Wind_Speed
9 10 12 13 14 15 14 12 8 6 5 4 3 3 3 3 3 3 3 3 2 2 2 2 2 2 2 2 2 3 3 4 4 4 3 3 4 5 5 4 3 2 1
9 10 12 13 14 14 13 13 11 8 6 5 3 2 2 2 1 1 2 2 2 2 3 3 3 2 2 2 1 2 3 4 4 5 4 3 3 4 5 4 3 1 1
10 11 12 13 13 13 13 12 11 9 7 5 4 2 1 1 2 2 3 4 6 6 6 7 6 6 6 4 4 3 2 2 2 4 4 3 1 2 4 4 4 3 3
10 10 11 12 12 12 12 11 10 9 8 6 5 3 3 3 4 5 6 7 7 7 7 7 7 6 5 5 5 5 4 3 2 1 2 1 1 2 4 4 3 3 4
11 11 11 11 11 11 11 11 10 9 8 8 7 7 5 4 5 6 6 7 7 6 6 6 6 7 9 7 5 5 5 4 3 2 2 2 2 3 3 2 2 2 3
11 11 11 11 11 10 10 10 10 10 9 10 10 9 8 6 10 11 7 5 5 5 4 3 3 4 7 9 8 7 6 4 4 3 3 3 3 4 3 3 2 2 2
11 10 10 11 11 11 10 9 9 9 8 8 8 8 8 9 12 12 10 5 4 4 5 5 5 5 7 5 6 5 3 3 4 3 3 4 3 4 3 3 3 2 2
10 10 9 9 10 10 10 10 9 7 6 6 6 6 5 7 11 10 8 5 3 4 5 6 6 6 5 6 5 4 3 2 3 4 4 4 4 3 3 2 3 3 4
10 9 9 9 10 9 9 9 7 7 6 5 4 5 6 6 10 10 9 4 2 3 4 6 5 6 9 9 7 5 4 5 6 7 5 4 4 4 1 1 2 2 2
10 9 8 8 9 8 9 8 6 6 6 6 5 4 4 4 8 9 9 4 4 3 3 4 7 7 9 9 6 5 5 5 6 7 7 7 4 5 6 3 2 1 2
11 10 8 8 7 7 7 6 6 6 6 5 4 4 2 3 6 8 9 5 5 5 4 3 4 8 8 8 6 4 5 4 4 4 3 3 4 5 6 6 5 3 1
11 10 9 8 8 8 7 6 6 6 6 6 5 5 3 2 3 5 7 6 5 4 3 3 4 7 8 7 3 5 7 5 2 3 3 3 4 4 4 4 4 3 2
12 11 9 9 7 8 7 6 6 6 5 6 6 6 6 6 6 9 10 10 7 2 0 2 3 5 6 5 4 5 4 3 3 3 3 3 3 3 3 3 3 3 4
11 11 10 9 8 8 7 6 4 4 4 6 7 7 6 6 5 5 5 7 9 4 2 1 3 4 2 4 3 3 3 2 2 1 1 2 2 3 2 2 3 3 3
10 10 10 9 8 7 7 8 8 4 5 5 3 4 6 5 9 15 10 5 3 2 2 1 2 1 1 2 2 3 3 3 3 3 3 2 3 3 3 3 3 3 3
11 10 9 8 8 8 7 8 13 15 17 15 11 8 7 10 15 16 15 11 8 5 3 2 2 1 1 2 2 2 2 2 2 2 3 3 3 3 3 3 3 3 4
11 11 9 10 10 9 9 8 8 11 15 17 17 16 13 13 14 15 14 11 8 5 2 2 2 1 1 1 1 1 1 1 1 1 2 3 3 3 4 4 4 4 4
10 12 11 7 8 8 7 8 8 9 9 8 12 17 17 16 16 17 15 8 4 4 2 2 2 1 1 1 1 1 1 1 1 2 2 3 3 4 4 5 4 5 6
10 8 6 5 6 7 8 8 7 8 7 8 7 9 15 16 16 17 14 5 3 3 3 2 2 1 1 1 1 1 1 2 2 2 3 4 4 4 5 5 5 10 9
7 17 15 7 6 7 7 7 7 6 6 6 6 6 6 8 6 7 6 4 4 3 3 3 2 2 1 1 2 2 2 3 3 3 4 4 4 4 5 6 6 7 7
6 9 17 10 6 5 5 5 5 5 5 6 5 8 15 6 4 5 4 4 4 4 4 4 3 3 2 2 2 3 4 3 4 4 4 4 4 4 5 5 6 7 8
5 6 6 6 6 6 7 6 5 5 6 6 4 7 13 5 4 4 5 4 3 3 4 4 3 3 3 2 3 3 4 4 4 4 4 4 4 5 5 6 7 7 8
6 7 8 7 7 12 11 6 6 6 6 6 6 6 6 4 4 4 3 4 4 4 4 4 4 3 3 3 3 4 4 5 5 5 5 5 6 6 6 8 9 10 10
7 9 10 9 9 9 9 9 9 9 8 7 7 6 5 4 4 5 4 4 4 4 4 4 4 5 6 5 4 4 5 7 7 7 9 9 9 9 9 9 11 12 12
9 11 11 11 11 11 11 11 11 10 11 10 8 7 6 5 5 4 4 3 4 4 5 4 4 4 6 7 6 6 13 19 19 13 10 10 12 13 13 13 12 12 12
12 13 13 12 12 12 13 13 13 13 12 12 10 8 6 6 5 5 4 4 3 3 4 4 5 6 7 7 9 14 20 21 22 22 12 8 9 9 10 10 12 11 11
Wind_Direction
358 350 340 335 334 334 334 337 345 4 23 32 24 5 334 340 348 348 336 338 338 324 318 284 262 261 259 245 219 210 213 196 209 233 238 238 188 162 149 139 117 104 349
357 350 342 338 336 335 336 340 347 356 8 6 346 328 305 306 326 2 354 4 9 5 9 26 12 9 359 322 285 241 228 216 202 217 232 237 204 164 135 120 101 69 6
2 354 348 345 340 337 335 338 341 345 348 341 328 325 342 1 51 57 61 61 63 61 57 59 45 43 33 16 11 357 310 267 223 207 220 216 174 117 104 88 68 38 8
1 357 352 346 341 339 340 342 342 341 340 339 337 357 26 56 68 69 70 72 73 68 64 62 54 47 36 27 37 17 3 2 358 212 198 168 123 94 97 89 63 34 5
360 358 352 345 341 341 342 343 344 346 353 360 6 12 22 45 67 71 70 75 77 74 67 64 61 51 47 53 59 38 23 22 24 36 56 72 75 68 78 84 80 33 336
358 357 351 346 344 345 345 349 355 3 11 14 12 10 17 37 62 68 70 70 74 72 65 56 72 66 43 42 48 49 45 42 33 33 33 46 60 63 62 64 69 51 322
355 354 350 347 347 348 348 354 0 4 9 14 11 10 17 30 43 47 48 48 58 65 55 36 23 35 56 31 15 19 38 70 74 62 32 25 48 46 48 40 33 20 281
350 348 345 346 347 350 354 356 357 357 360 2 359 2 13 27 27 24 24 27 36 58 63 51 23 12 42 29 359 349 352 37 77 64 59 37 41 47 47 20 340 317 294
345 344 345 347 345 348 351 350 349 347 350 349 355 2 5 14 17 8 5 338 21 59 82 83 49 32 30 28 10 0 20 25 44 39 24 356 337 323 307 26 341 333 316
341 340 343 347 344 346 342 340 344 342 342 344 347 345 355 14 3 0 5 359 29 34 53 103 79 50 25 23 12 10 39 28 9 2 0 354 5 19 40 66 38 20 354
337 340 345 345 339 344 336 334 340 340 337 333 324 320 352 48 8 12 20 33 25 14 16 64 69 48 17 5 12 23 21 14 348 340 345 1 29 44 44 40 38 39 11
337 341 343 343 344 348 334 335 342 340 341 340 338 342 6 43 41 10 8 15 21 11 20 61 45 25 360 349 4 357 357 2 1 11 20 29 38 33 19 3 347 331 287
340 340 339 342 343 339 335 339 350 347 352 351 353 358 1 3 4 8 5 355 343 331 40 50 17 2 355 347 348 348 2 29 40 29 21 28 28 6 345 333 333 330 313
339 338 339 340 342 340 341 342 346 345 352 352 347 348 346 349 354 357 349 342 339 335 356 359 331 320 293 283 323 14 41 34 41 22 2 11 359 343 334 337 332 323 310
336 337 339 342 337 336 342 340 338 324 327 333 330 331 330 329 322 327 332 329 337 355 10 338 305 316 21 25 28 36 37 24 20 23 25 1 339 332 328 328 316 309 298
340 339 340 340 337 339 338 339 342 342 342 344 338 331 325 323 325 329 330 331 329 325 341 317 313 357 41 43 35 28 20 8 19 19 1 339 325 318 311 307 302 299 294
339 338 344 344 339 340 342 341 339 341 347 349 347 341 336 333 332 329 325 324 316 312 313 312 338 15 25 26 7 323 308 333 4 326 302 302 304 305 305 303 299 297 292
336 339 346 336 334 336 339 338 338 341 341 340 339 337 338 340 337 333 329 332 332 330 299 279 266 258 244 233 241 264 294 319 311 298 296 296 297 296 294 293 294 293 296
337 331 331 327 331 335 336 334 335 337 334 330 327 330 335 336 338 339 346 351 330 320 314 310 300 285 264 236 239 246 246 253 262 268 269 271 272 273 278 280 286 293 296
327 334 339 335 329 327 324 323 322 319 317 315 315 314 315 327 333 330 332 327 328 324 320 316 311 302 288 259 251 247 245 246 254 254 255 256 258 262 270 275 277 282 282
311 319 331 329 306 300 296 292 291 293 295 302 303 316 328 343 330 322 327 341 349 344 336 328 323 317 308 290 271 261 255 249 246 249 251 251 251 254 258 264 269 274 279
301 301 300 298 295 292 291 282 283 282 285 294 298 313 327 335 319 324 330 328 314 305 303 303 298 292 287 283 276 269 262 258 256 254 253 251 250 254 258 263 266 268 271
294 295 296 291 288 294 299 283 278 277 278 279 285 299 308 307 306 306 297 289 282 279 278 277 279 275 270 265 263 262 260 258 254 250 251 254 253 254 256 260 261 263 267
295 294 292 291 288 283 280 278 276 276 275 272 270 273 267 261 265 271 270 272 277 278 275 270 267 268 273 271 261 257 254 259 255 249 246 249 254 257 256 255 256 258 261
297 295 294 291 289 286 283 280 276 272 271 271 265 260 249 243 243 246 247 254 268 276 283 282 271 270 275 277 275 269 279 283 282 273 250 247 251 252 253 253 254 256 256
303 301 299 297 293 290 287 284 280 277 271 268 264 253 244 240 237 235 234 237 248 263 275 280 276 276 276 277 278 285 292 293 291 290 281 262 258 258 256 255 254 254 255